User: anonymous   Login
Location: Unspecified
(0.0000°N, 0.0000°E)
Time: 07:21:15
(UTC+00:00)
Language:

AISAT - Orbit

View from above orbital plane
View from above orbital plane
View from above satellite
View from above satellite

Ground track
Ground track

The orbit data is extracted from the following two-line orbital elements,

1 40054U 14034B   17290.82001716  .00000640  00000-0  97827-4 0  9996
2 40054  98.1933  32.2921 0013038  18.3522 341.8155 14.77228152177824
Epoch (UTC): 17 October 2017 19:40:49
Eccentricity: 0.0013038
inclination: 98.1933°
perigee height: 629 km
apogee height: 647 km
right ascension of ascending node: 32.2921°
argument of perigee: 18.3522°
revolutions per day: 14.77228152
mean anomaly at epoch: 341.8155°
orbit number at epoch: 17782

The dashed part of the orbit path shows where the satellite is in the earth's shadow,  

DLR